EW6329 Weather Reports


Display with metric or nautical units.
time (UTC)temp
F
wind
direction
speed
MPH
gust
MPH
rain 1hr
in
rain 24hr
in
rain mn
in
humidity
%
barometer
mb
20260504034542 61 355 0.0 0.0 0.00 0.00 0.00 58 1013.5
20260504033059 61 355 0.0 0.0 0.00 0.00 0.00 56 1013.8
20260504031505 61 355 0.0 0.0 0.00 0.00 0.00 56 1013.9
20260504030025 62 355 0.0 0.0 0.00 0.00 0.00 54 1014.0
20260504024534 62 355 0.0 2.0 0.00 0.00 0.00 53 1013.9
20260504023045 63 355 0.0 0.0 0.00 0.00 0.00 52 1013.7
20260504021559 64 355 0.0 0.0 0.00 0.00 0.00 50 1013.8
20260504020011 65 355 0.0 0.0 0.00 0.00 0.00 49 1013.6
20260504014533 65 355 0.0 0.0 0.00 0.00 0.00 47 1013.5
20260504013043 67 355 0.0 0.0 0.00 0.00 0.00 45 1013.4
20260504011548 68 355 0.0 0.0 0.00 0.00 0.00 44 1013.4
20260504010100 69 355 0.0 0.0 0.00 0.00 0.00 42 1013.3
20260504004510 70 355 0.0 0.0 0.00 0.00 0.00 41 1013.4
20260504003024 70 355 0.0 0.0 0.00 0.00 0.00 40 1013.4
20260504001553 71 355 0.0 2.0 0.00 0.00 0.00 40 1013.4
20260504000100 72 26 0.0 2.0 0.00 0.00 0.00 39 1013.5
20260503234606 72 306 0.0 2.0 0.00 0.00 0.00 36 1013.5
20260503233020 73 304 0.0 2.0 0.00 0.00 0.00 35 1013.8
20260503231526 73 304 1.0 4.0 0.00 0.00 0.00 34 1013.9
20260503230056 73 298 0.0 2.0 0.00 0.00 0.00 34 1013.9
20260503224601 73 315 0.0 4.0 0.00 0.00 0.00 34 1014.1
20260503223003 74 336 0.0 2.0 0.00 0.00 0.00 32 1014.3
20260503221513 73 336 0.0 4.0 0.00 0.00 0.00 33 1014.5
20260503220035 73 317 0.0 5.0 0.00 0.00 0.00 32 1014.6
20260503214540 73 315 0.0 3.0 0.00 0.00 0.00 29 1014.8
20260503213053 73 329 0.0 3.0 0.00 0.00 0.00 31 1014.9
20260503211502 73 152 0.0 2.0 0.00 0.00 0.00 34 1015.3
20260503210014 72 298 0.0 3.0 0.00 0.00 0.00 33 1015.6
20260503204528 72 317 0.0 4.0 0.00 0.00 0.00 35 1015.7
20260503203059 72 267 0.0 4.0 0.00 0.00 0.00 32 1016.0
20260503201549 72 199 0.0 3.0 0.00 0.00 0.00 32 1016.3
20260503200107 71 246 1.0 4.0 0.00 0.00 0.00 34 1016.6
20260503194528 71 93 0.0 2.0 0.00 0.00 0.00 37 1016.9
20260503193026 71 311 0.0 4.0 0.00 0.00 0.00 35 1017.0
20260503191545 71 321 0.0 4.0 0.00 0.00 0.00 35 1017.3
20260503190058 70 306 0.0 4.0 0.00 0.00 0.00 37 1017.6
20260503184605 69 294 1.0 4.0 0.00 0.00 0.00 37 1017.8
20260503183012 69 320 1.0 5.0 0.00 0.00 0.00 36 1017.9
20260503181524 69 320 1.0 5.0 0.00 0.00 0.00 38 1018.4
20260503180038 69 301 0.0 3.0 0.00 0.00 0.00 38 1018.5
20260503174548 68 300 0.0 5.0 0.00 0.00 0.00 39 1018.8
20260503173106 67 117 0.0 2.0 0.00 0.00 0.00 41 1019.2
20260503171512 67 330 0.0 4.0 0.00 0.00 0.00 42 1019.4
20260503100111 45 286 0.0 0.0 0.00 0.00 0.00 85 1019.0
20260503081536 47 286 0.0 0.0 0.00 0.00 0.00 80 1019.0
20260503071519 49 286 0.0 0.0 0.00 0.00 0.00 75 1018.9
20260503054552 52 286 0.0 0.0 0.00 0.00 0.00 70 1018.6
20260503053046 53 286 0.0 0.0 0.00 0.00 0.00 69 1018.6
20260503051559 53 286 0.0 0.0 0.00 0.00 0.00 68 1018.6
20260503050010 54 286 0.0 0.0 0.00 0.00 0.00 67 1018.5
20260503044525 54 286 0.0 0.0 0.00 0.00 0.00 66 1018.4
20260503043038 55 286 0.0 0.0 0.00 0.00 0.00 64 1018.3
20260503041552 55 286 0.0 0.0 0.00 0.00 0.00 63 1018.2
20260503040002 56 286 0.0 0.0 0.00 0.00 0.00 62 1018.1